Regional Weather Roundup
Issued by NWS

Home | Current Version | Previous Version | Graphics & Text | Print | Product List | Glossary On
Versions: 1 2 3 4 5 6 7 8 9 10 11 12 13 14 15 16 17 18 19 20 21 22 23 24 25 26 27
000
ASUS45 KSLC 221110
RWRUT

UTAH REGIONAL WEATHER ROUNDUP
NATIONAL WEATHER SERVICE SALT LAKE CITY UT
400 AM MST THU FEB 22 2018

UTZ001>011-023>025-221200-

NORTHERN UTAH

CITY           SKY/WX    TMP DP  RH WIND       PRES   REMARKS
BRIGHAM CITY   CLOUDY    17  10  72 CALM      30.02F
HILL AFB       CLOUDY    14   3  61 E18       29.97F WCI  -3
LOGAN          CLOUDY     4  -2  76 CALM      30.03F HAZE
OGDEN          CLOUDY    17   6  62 S8        29.99F WCI   7
SALT LAKE CITY MOCLDY    22  14  71 SE8       30.00F WCI  12
TOOELE VALLEY  CLOUDY    19  10  68 SE3       30.00F
WENDOVER         N/A     17  10  74 NE6       29.99F WCI   9
HEBER CITY       N/A      0  -4  85 E6        29.96F WCI -12
WEST JORDAN    CLOUDY    18  12  77 SE3       29.99F

$$

UTZ011>015-024>027-221200-

CENTRAL/NORTHEAST UTAH

CITY           SKY/WX    TMP DP  RH WIND       PRES   REMARKS
PROVO AIRPORT    N/A     14  11  87 CALM      30.02F
MOAB/CANYONLAN CLOUDY    27  25  92 CALM      29.97F
DELTA            N/A      7   3  85 CALM      30.01F
PRICE          CLOUDY    18   7  62 NE3       29.94F
RICHFIELD      PTCLDY    18  16  93 CALM      29.99F
VERNAL         CLOUDY    11   5  77 W5        30.01F WCI   3

$$

UTZ013>016-019>022-027-221200-

SOUTHERN UTAH

CITY           SKY/WX    TMP DP  RH WIND       PRES   REMARKS
BRYCE CANYON     N/A      7   3  84 W5        29.92F WCI  -2
CEDAR CITY       N/A     11   9  92 CALM      29.97S
MILFORD          N/A      4   2  91 S7        29.99F WCI  -8
ST GEORGE        N/A     30  19  63 E9        30.07F WCI  22
HANKSVILLE     CLOUDY    23   5  46 CALM      30.01F
KANAB          CLEAR     16  12  86 NE5       30.06S WCI   9
BLANDING         N/A     20  16  84 N5        30.02F WCI  13

$$

REGIONAL REPORTS     COLORADO/ARIZONA

CITY           SKY/WX    TMP DP  RH WIND       PRES   REMARKS
CRAIG, CO      CLOUDY    12   8  84 CALM      29.98F
GRAND JUNCTION LGT SNOW  26  26 100 E3        29.98F FOG
RIFLE, CO      LGT SNOW  24  22  91 CALM      29.97F FOG
MONTROSE, CO   LGT SNOW  24  23  96 CALM      29.98F FOG
CORTEZ, CO     CLOUDY    23  23 100 E5        29.96S FOG     WCI  17
COLORADO CITY    N/A     18  14  86 E3        30.04F
PAGE, AZ       CLOUDY    33  16  49 CALM      30.00F
GRAND CANYON     N/A      6   3  87 CALM      29.98F
KINGMAN, AZ      N/A     20   7  57 CALM      30.06S
FLAGSTAFF, AZ    N/A     12   3  67 CALM      29.96F

$$

REGIONAL REPORTS    NEVADA/IDAHO/WYOMING

CITY           SKY/WX    TMP DP  RH WIND       PRES   REMARKS
LAS VEGAS, NV    N/A     36  12  37 SW3       30.06F
ELY, NY        CLOUDY    11   7  84 S8        29.91F WCI  -1
ELKO, NV       MOCLDY    13   9  84 NE6       29.92F WCI   4
POCATELLO, ID    N/A     19   8  62 E13       29.96F WCI   6
BURLEY, ID       N/A     21  10  62 S8        29.93F WCI  11
EVANSTON, WY     N/A     -1  -6  79 E12       29.90F WCI -18
ROCK SPRINGS,  CLOUDY     2  -3  80 SW3       29.95F

$$




USA.gov is the U.S. government's official web portal to all federal, state and local government web resources and services.